This is the latest recevied weather packets stored in our database for station/object N5GMJ. If no packets are shown the sender has not sent any weather packets the latest 1 day(s).
| Time | Temp. | Humidity | Pressure | Rain* | Wind** | Luminosity | Snow |
|---|---|---|---|---|---|---|---|
| 1778041634 | 15.56° C | 80% | 1011.4 hPa | 0 mm | 1.34 m/s, 330° | - | - |
| 1778041332 | 16.11° C | 79% | 1011.4 hPa | 0 mm | 0.89 m/s, 356° | - | - |
| 1778041031 | 16.11° C | 79% | 1011.4 hPa | 0 mm | 2.24 m/s, 329° | - | - |
| 1778040727 | 16.11° C | 79% | 1011.4 hPa | 0 mm | 1.79 m/s, 308° | - | - |
| 1778040425 | 16.11° C | 79% | 1011.3 hPa | 0 mm | 2.68 m/s, 324° | - | - |
| 1778040121 | 16.11° C | 78% | 1011.1 hPa | 0 mm | 1.34 m/s, 321° | - | - |
| 1778039818 | 16.11° C | 78% | 1011.6 hPa | 0 mm | 2.24 m/s, 329° | - | - |
| 1778039515 | 16.67° C | 78% | 1011.4 hPa | 0 mm | 1.79 m/s, 330° | - | - |
| 1778039212 | 16.67° C | 77% | 1011.4 hPa | 0 mm | 2.24 m/s, 303° | - | - |
| 1778038909 | 16.67° C | 78% | 1011.4 hPa | 0 mm | 2.68 m/s, 307° | - | - |
| 1778038606 | 16.67° C | 77% | 1011 hPa | 0 mm | 2.68 m/s, 317° | - | - |
| 1778038303 | 16.67° C | 77% | 1011.1 hPa | 0 mm | 1.79 m/s, 332° | - | - |
| 1778038000 | 17.22° C | 77% | 1010.8 hPa | 0 mm | 0.89 m/s, 310° | - | - |
| 1778037697 | 17.22° C | 77% | 1010.7 hPa | 0 mm | 2.68 m/s, 328° | - | - |
| 1778037394 | 17.22° C | 77% | 1010.6 hPa | 0 mm | 1.79 m/s, 313° | - | - |
| 1778037091 | 17.22° C | 77% | 1010.4 hPa | 0 mm | 1.79 m/s, 301° | - | - |
| 1778036790 | 17.22° C | 77% | 1010.4 hPa | 0 mm | 2.24 m/s, 311° | - | - |
| 1778036486 | 17.78° C | 77% | 1010.4 hPa | 0 mm | 3.13 m/s, 307° | - | - |
| 1778036183 | 17.78° C | 77% | 1009.9 hPa | 0 mm | 0.89 m/s, 278° | - | - |
| 1778035879 | 17.78° C | 77% | 1009.9 hPa | 0 mm | 1.79 m/s, 304° | - | - |
| 1778035577 | 17.78° C | 77% | 1009.9 hPa | 0 mm | 2.24 m/s, 0° | - | - |
| 1778035273 | 17.78° C | 76% | 1009.9 hPa | 0 mm | 0.89 m/s, 355° | - | - |
| 1778034969 | 17.78° C | 76% | 1009.9 hPa | 0 mm | 2.24 m/s, 314° | - | - |
| 1778034667 | 18.33° C | 76% | 1009.6 hPa | 0 mm | 1.79 m/s, 327° | - | - |
| 1778034364 | 18.33° C | 76% | 1009.6 hPa | 0 mm | 1.34 m/s, 329° | - | - |
* Rain latest hour (hover to see other rain measurements)
** Current wind speed in m/s (hover to see current wind gust speed)